Vertical_Velocity
1 0 -0 -0 -0 -0 -0 -0 0 0 -1 -1 -2 -0 -0 0 -1 -1 -0 1 0 1 -0 0 1 -1 -0 -0 -0 -0 -2 -1 -1 1 1 1 -0 -2 -1 -0 2 1 0 -1 -0
1 1 -1 0 1 1 0 1 0 0 1 0 1 0 -1 -1 0 2 1 1 0 -0 0 1 1 2 -1 -1 -0 -1 -1 2 0 0 -1 -1 1 3 2 2 -0 -1 -1 -2 -2
1 -1 -0 -0 -0 1 1 0 1 1 0 1 0 0 0 0 0 -0 -1 -1 -0 1 1 0 3 1 1 2 1 -0 1 1 0 -0 -0 1 0 -0 -2 -1 0 -1 -0 -1 -0
1 0 1 0 -1 -2 -1 1 1 1 1 2 1 1 2 1 1 0 -1 -0 0 1 2 1 1 0 1 0 2 0 0 2 2 2 2 -1 -1 1 1 1 1 0 -0 -0 1
0 -0 2 1 1 0 -2 -1 -0 -1 -1 -0 -0 -1 -1 -0 1 1 1 1 2 1 0 -0 -0 -0 2 2 0 -1 -1 -0 -1 -1 -2 -2 -2 -3 -3 -1 -1 0 1 1 1
-0 -0 -0 0 1 0 -1 0 -0 -0 0 0 1 1 -0 -1 0 -1 -0 0 1 1 -1 -1 -0 1 -0 -1 -0 -1 -0 -1 -1 1 1 0 -2 -1 -1 -1 0 -0 -3 -4 -2
-2 -3 -1 0 0 -0 -1 -1 -0 -1 -2 -1 -2 -2 2 2 1 1 1 0 -1 -1 -0 0 0 -1 -1 -1 -1 -1 -2 -0 -1 -3 -3 -2 -7 -3 -2 -0 -1 -0 -0 -1 -1
-1 -1 -2 -3 -2 1 1 0 -0 1 1 1 1 -0 -2 -0 -1 -0 0 -0 0 -2 -3 -1 -1 -0 -1 0 0 -0 -2 -1 -1 2 0 3 -3 0 1 1 2 2 1 0 -0
-1 -0 -0 -2 -3 -4 -1 1 -0 -1 -2 -1 -1 1 2 2 0 -0 -0 2 0 1 -1 -1 -0 -1 0 -0 -1 -1 0 0 -1 0 0 4 -3 2 0 0 -0 -1 -2 -1 -1
-2 0 -2 -2 -3 -3 -3 -3 -2 -0 -2 -3 -2 -0 1 -0 0 0 0 -1 0 -0 1 0 0 -2 -0 1 -2 -1 -1 -0 1 -4 -1 -2 -4 -6 -4 -3 -3 -3 -3 -1 -1
-3 -5 -3 -2 -2 -2 -2 -3 -3 -5 -1 2 1 -0 -1 0 1 2 1 -1 0 -1 -2 -2 -1 2 -0 0 -0 0 -1 -2 -2 -2 -3 1 -4 -3 -4 -3 -1 -2 -0 -0 -2
-2 -2 -2 2 -0 -3 -4 -5 -4 1 -7 -1 -1 -3 -2 -2 -2 -2 2 0 1 1 1 -1 -1 1 1 1 0 -0 0 -0 -2 1 -1 -0 -2 -2 0 3 2 1 -0 -0 0
-2 -2 -3 -1 -0 -3 0 -2 -1 -2 -4 -2 2 1 0 2 -1 -2 -4 -4 -2 -3 -2 0 -3 -3 -0 1 0 -1 -1 -1 1 1 1 -3 -11 -5 -2 -1 -2 -1 -1 -0 0
-3 1 -1 -4 -1 -2 -0 -5 -4 -3 -7 0 -2 5 -1 -2 2 1 1 2 -1 -4 -2 -3 -3 -4 -1 1 2 2 1 1 0 1 -1 -0 -14 -4 -1 -1 -1 1 2 1 1
1 -10 3 -6 1 -5 -3 -0 -0 -6 -3 -2 -1 -4 0 -0 -1 -4 -5 -5 -0 0 2 -0 -0 2 0 -0 1 -1 1 -1 -1 0 2 -1 2 -2 -2 -1 1 0 1 2 3
3 -0 -3 -2 -6 0 -1 -3 -4 -5 -8 1 -7 2 1 2 -2 -7 1 -1 0 0 -2 -0 0 -2 0 1 -1 -1 -1 -1 1 1 1 2 2 -2 -1 -0 -1 0 -0 -1 -0
-1 3 -3 0 -2 -4 0 -1 -2 -4 -2 -0 -1 1 -5 -1 -3 -2 -1 -1 1 -3 -2 -0 1 3 2 2 1 1 -0 -3 -4 -2 -3 -1 3 -12 -0 -1 -1 -3 -2 0 -2
-3 1 -0 -1 -1 5 -7 -1 1 -1 -2 -4 -1 -2 -2 0 -1 1 -1 -3 -1 1 2 0 -3 -1 -5 -3 1 -3 -3 -1 -3 -1 -3 1 -7 -1 -3 -1 -0 -2 0 2 -2
-0 -5 0 -2 -2 2 5 -3 -3 -1 -5 3 -2 -2 -3 -1 0 -1 -3 -2 -3 -2 -2 -3 -2 -2 -2 -0 3 -0 -2 -1 -1 0 0 -0 -5 -6 1 -1 -0 -1 1 2 -4
-3 -3 1 -8 3 -1 -0 6 1 5 0 2 -1 3 1 -1 -1 1 -2 -2 -2 -3 2 0 -1 -0 1 -0 -0 3 6 0 -1 -3 -2 -4 -3 -8 -1 -1 -3 -1 -2 -3 -5
1 -11 -2 2 -9 1 -3 -0 1 1 2 0 -0 -4 1 -1 2 1 -3 -5 2 1 2 1 3 -3 2 -2 0 1 -4 -1 -3 -2 -4 -2 -9 -4 -2 -1 -2 -3 -5 -4 -3
-6 3 -1 3 -4 -2 -2 3 3 3 4 -1 -2 2 4 1 0 5 -1 3 -0 -2 -3 -3 1 -2 1 0 2 1 -4 1 -2 -3 1 0 -29 -6 -4 -3 -0 -2 -2 -4 -6
12 13 13 -1 -3 -4 -7 -6 1 -3 2 -6 -3 -1 -0 2 -2 2 1 -2 2 3 2 1 4 -1 -1 -1 2 0 -0 4 3 5 -7 -3 -15 -1 -1 0 1 -2 -1 -2 -2
3 3 -2 -2 -5 4 1 -3 -3 4 -2 -4 -2 -0 5 -1 8 -10 -3 7 6 5 1 7 2 -5 -8 6 5 -1 -2 -1 8 1 -3 -25 -2 -6 3 3 1 -1 -0 -2 -2
3 -5 0 -4 7 1 1 4 0 1 6 3 -5 3 6 2 -1 -4 6 3 0 4 -1 3 -6 -2 -2 -4 -1 2 -0 2 -8 3 -5 -4 -5 8 4 6 0 1 1 -1 -3
17 18 10 -1 -2 4 14 -7 14 -5 20 1 -2 2 14 -4 11 4 6 0 1 0 2 4 -3 -1 -5 -3 1 -1 -3 6 6 1 -7 9 -27 6 9 1 -1 -0 -3 -4 -1
-1 0 10 8 5 13 1 4 5 13 1 5 8 11 -1 3 -1 3 4 5 0 3 5 4 3 2 -4 0 0 -7 -4 3 3 -1 9 -5 10 8 2 0 -5 -0 -2 -3 -3
Height
3163 3161 3159 3157 3154 3152 3150 3148 3146 3144 3142 3140 3139 3137 3135 3134 3132 3131 3130 3130 3128 3127 3126 3125 3124 3124 3124 3123 3123 3123 3124 3122 3122 3123 3124 3125 3126 3127 3127 3127 3127 3126 3126 3126 3124
3163 3161 3158 3156 3154 3151 3149 3147 3145 3144 3142 3140 3137 3135 3134 3132 3130 3129 3128 3127 3126 3126 3125 3124 3124 3123 3122 3122 3122 3121 3121 3121 3121 3120 3121 3122 3123 3123 3124 3123 3123 3123 3122 3122 3122
3162 3160 3157 3155 3152 3150 3147 3145 3143 3142 3139 3137 3135 3133 3132 3130 3129 3127 3126 3125 3124 3124 3123 3123 3123 3122 3121 3120 3119 3119 3119 3118 3118 3118 3119 3119 3120 3120 3119 3119 3119 3119 3119 3118 3117
3162 3159 3156 3153 3151 3149 3146 3144 3142 3140 3138 3136 3134 3132 3130 3129 3130 3126 3125 3124 3123 3123 3123 3122 3122 3121 3120 3119 3118 3118 3117 3117 3116 3116 3116 3117 3117 3117 3116 3115 3114 3114 3113 3113 3112
3161 3158 3155 3153 3150 3147 3146 3143 3141 3139 3136 3134 3133 3131 3129 3128 3127 3125 3123 3123 3122 3122 3122 3121 3120 3119 3118 3117 3116 3115 3115 3115 3114 3113 3113 3113 3113 3112 3111 3111 3110 3108 3107 3106 3104
3162 3159 3156 3153 3150 3147 3145 3143 3140 3138 3135 3133 3131 3129 3127 3126 3124 3123 3122 3122 3122 3121 3121 3120 3118 3117 3116 3115 3114 3113 3112 3111 3110 3110 3109 3109 3108 3108 3107 3106 3104 3103 3101 3100 3098
3164 3159 3155 3153 3150 3147 3144 3142 3139 3136 3133 3131 3129 3126 3125 3125 3122 3122 3121 3121 3121 3120 3119 3118 3116 3116 3114 3112 3111 3110 3109 3108 3106 3105 3104 3104 3102 3101 3101 3100 3098 3097 3096 3094 3092
3163 3160 3157 3154 3150 3147 3144 3140 3137 3134 3131 3129 3127 3125 3123 3122 3121 3121 3121 3119 3118 3118 3117 3116 3114 3113 3112 3110 3108 3108 3107 3104 3102 3100 3099 3099 3096 3097 3095 3093 3092 3090 3088 3086 3084
3163 3159 3157 3154 3150 3146 3143 3139 3136 3133 3130 3127 3126 3123 3121 3121 3120 3120 3119 3117 3116 3115 3114 3113 3112 3110 3109 3107 3106 3104 3102 3100 3099 3097 3095 3093 3090 3090 3090 3089 3087 3084 3082 3080 3077
3161 3159 3156 3153 3149 3146 3143 3139 3135 3132 3129 3126 3123 3124 3122 3120 3119 3118 3117 3115 3114 3113 3112 3110 3108 3106 3105 3103 3102 3100 3100 3098 3096 3093 3090 3087 3085 3083 3081 3079 3077 3074 3074 3072 3070
3159 3157 3154 3152 3148 3145 3142 3138 3137 3132 3127 3124 3121 3118 3117 3117 3117 3116 3114 3113 3112 3111 3109 3108 3107 3103 3100 3098 3098 3097 3095 3093 3091 3088 3085 3081 3076 3076 3072 3068 3065 3064 3064 3062 3062
3158 3155 3151 3148 3145 3143 3140 3136 3133 3131 3123 3119 3115 3114 3113 3114 3114 3113 3112 3112 3110 3108 3106 3105 3102 3099 3096 3095 3094 3092 3090 3088 3086 3082 3079 3074 3066 3065 3062 3058 3057 3055 3054 3055 3054
3157 3153 3150 3146 3143 3140 3136 3133 3129 3125 3120 3114 3110 3109 3111 3113 3112 3112 3111 3109 3107 3105 3103 3102 3100 3097 3095 3093 3091 3088 3086 3084 3082 3077 3072 3066 3052 3052 3051 3050 3048 3048 3048 3048 3048
3154 3152 3149 3144 3143 3137 3134 3130 3125 3122 3117 3114 3111 3109 3110 3110 3111 3108 3107 3107 3102 3101 3099 3096 3093 3092 3091 3088 3086 3083 3081 3079 3076 3074 3069 3066 3054 3040 3042 3042 3040 3042 3042 3042 3042
3152 3148 3145 3142 3139 3135 3133 3128 3125 3122 3117 3114 3111 3111 3110 3111 3110 3106 3104 3101 3099 3097 3097 3093 3089 3087 3084 3084 3082 3080 3077 3075 3071 3068 3062 3056 3060 3033 3035 3034 3036 3038 3039 3039 3037
3149 3146 3143 3141 3137 3134 3129 3126 3126 3123 3116 3112 3112 3110 3110 3107 3105 3102 3100 3098 3095 3092 3089 3086 3084 3082 3081 3079 3078 3077 3075 3071 3065 3064 3060 3050 3051 3031 3032 3032 3033 3034 3035 3036 3036
3145 3143 3140 3137 3135 3131 3127 3125 3123 3119 3118 3114 3110 3108 3105 3104 3099 3094 3093 3093 3091 3088 3083 3081 3078 3076 3076 3075 3074 3075 3075 3071 3066 3064 3054 3050 3049 3029 3029 3028 3029 3030 3031 3030 3030
3141 3138 3136 3134 3131 3128 3125 3123 3119 3114 3112 3109 3106 3103 3100 3099 3094 3091 3089 3086 3086 3082 3078 3077 3072 3073 3072 3073 3071 3070 3074 3074 3074 3066 3055 3048 3035 3025 3025 3024 3024 3025 3026 3026 3026
3135 3132 3131 3128 3126 3124 3121 3118 3115 3109 3109 3106 3101 3096 3094 3094 3093 3087 3082 3079 3076 3078 3077 3073 3068 3065 3066 3066 3069 3063 3064 3066 3065 3060 3059 3037 3028 3025 3020 3020 3021 3021 3022 3021 3017
3129 3125 3124 3122 3120 3119 3116 3113 3110 3106 3103 3102 3100 3096 3090 3089 3088 3086 3078 3074 3073 3072 3071 3067 3065 3059 3059 3060 3061 3061 3062 3061 3063 3064 3056 3029 3023 3016 3017 3017 3017 3017 3016 3014 3010
3123 3118 3117 3114 3113 3112 3108 3105 3103 3101 3099 3099 3095 3092 3087 3084 3080 3078 3072 3069 3066 3065 3065 3065 3063 3056 3054 3052 3052 3054 3053 3055 3057 3056 3051 3044 3012 3012 3012 3013 3011 3011 3010 3008 3004
3115 3111 3108 3108 3107 3104 3102 3100 3098 3095 3092 3090 3087 3084 3081 3078 3074 3070 3066 3065 3060 3059 3059 3059 3056 3051 3047 3045 3044 3043 3044 3046 3046 3043 3039 3035 3006 3005 3005 3006 3006 3004 3001 2998 2995
3106 3100 3099 3099 3097 3096 3094 3092 3091 3087 3086 3084 3082 3079 3075 3072 3069 3062 3057 3056 3055 3053 3050 3050 3046 3046 3040 3041 3036 3033 3032 3035 3036 3034 3025 3029 3003 2999 3000 3000 2998 2995 2992 2989 2987
3101 3094 3090 3089 3089 3087 3085 3082 3083 3079 3076 3076 3074 3072 3068 3062 3061 3052 3051 3049 3046 3046 3045 3044 3040 3037 3034 3031 3030 3028 3027 3027 3028 3024 3013 2999 2995 2998 2998 2996 2992 2987 2984 2982 2979
3091 3087 3083 3080 3078 3078 3079 3073 3072 3073 3070 3068 3061 3061 3058 3053 3049 3044 3042 3038 3037 3038 3035 3037 3029 3028 3023 3024 3021 3016 3014 3014 3008 3005 3003 2988 2989 2993 2992 2990 2987 2982 2978 2976 2972
3084 3080 3075 3071 3070 3069 3064 3061 3061 3064 3063 3058 3053 3053 3048 3043 3042 3036 3033 3031 3030 3028 3028 3025 3021 3015 3008 3014 3012 3000 2998 2999 2995 2994 2990 2987 2979 2987 2985 2981 2979 2977 2973 2969 2964
3073 3072 3069 3059 3058 3059 3056 3055 3052 3054 3049 3049 3046 3042 3038 3036 3032 3029 3026 3024 3022 3020 3019 3020 3017 3013 3005 3004 3002 2990 2981 2981 2982 2982 2983 2980 2980 2979 2977 2975 2972 2969 2965 2961 2956